sat.trackr.live / text

‹ back to catalog

STARLINK-5887

NORAD 56349 · 2023-058AJ

PAYLOAD ACTIVE UNKNOWN

§ Identity

Operator
Country
US
Launch date
2023-04-27
Launch site
AFWTR
Launch vehicle
Mass (kg)
RCS (m²)

Purposes: comms

External: N2YO · Heavens-Above · Gunter

§ Orbital elements

Epoch: 2026-09-20T22:00:03.000096Z

Period
94.79 min
Inclination
97.2808°
Eccentricity
0.0001995
Mean motion
15.19129203 rev/d
Perigee alt
507.1 km
Apogee alt
509.8 km
Semi-major
6,886.6 km
B*
3.7811e-3
RAAN
257.8358°
Arg perigee
63.4348°
Mean anomaly
180.5135°
Rev number
578

§ Raw data

STARLINK-58871 56349U 23058AJ  26263.91670139  .00080157  00000+0  37811-2 0  99922 56349  97.2808 257.8358 0001995  63.4348 180.5135 15.19129203  5789

JSON: /api/v1/satellites/56349 · /tle

For live sub-satellite position, see the globe view (requires WebGL).

§ Visibility from observer

Set your observer location to see the next 7 days of passes ≥ 10°. The values pass through the URL so the page stays shareable.

No JS? Fill the form by hand. The geolocation button needs JavaScript.